O John Clark Restricted Landing Area [CLOSED]

Jump to: basic info | weather | comments

Related pages: nearby airports | nearby navaids | notams | map

Basic information (top)

Codes: 7IL2
Location: lon 42.368401, lat -87.991699, elev 790 ft / 241 m msl
Status: closed

Weather (top)

Current conditions for Waukegan Regional Airport 6nm (12km) ENE (rec'd 2014/11/21 10:55Z):

KUGN 211055Z AUTO VRB03KT 10SM CLR M13/M17 A3038 RMK AO2 SLP311 T11281172

Airport forecast for Kenosha Regional Airport 14nm (26km) NNE (rec'd 2014/11/21 06:42Z):

TAF KENW 210538Z 2106/2206 30007KT P6SM SKC 
     FM211700 20008KT P6SM FEW250 
     FM220300 19012KT 6SM -FZDZ BKN015 OVC025

Latest comments (top)

No comments yet for O John Clark Restricted Landing Area

More... (top)

See also NOTAMs and nearby airports and navaids, or visit the O John Clark Restricted Landing Area page at the main OurAirports website..